period_start,C,m1,H,J0,J1,J2,J3,J4,J5,JA,JB,JC,JD,JJ,JK,JN,#
2018-07-21 00:02:57,0.01,1.09,0.00,24.12,28.05,31.05,13.94,46.77,1013.20,2023.59,2953.03,2800.94,3192.93,599.52,591.23,42.22,0000 0000 0000 0000 000000
2018-07-21 00:07:58,-0.00,1.09,0.00,24.12,28.05,31.06,13.82,46.77,1013.21,2023.62,2953.09,2800.98,3192.93,599.82,591.56,42.27,0000 0000 0000 0000 000000
2018-07-21 00:12:59,-0.03,1.09,0.00,24.11,28.02,31.04,13.88,47.03,1013.21,2023.45,2953.63,2800.99,3192.98,599.97,591.75,42.32,0000 0000 0000 0000 000000
2018-07-21 00:18:01,0.01,1.09,0.00,24.11,28.02,31.04,13.86,46.90,1013.23,2023.43,2953.91,2800.99,3192.98,599.87,591.69,42.37,0000 0000 0000 0000 000000
2018-07-21 00:23:02,-0.00,1.09,0.00,24.10,28.02,31.02,13.97,47.08,1013.45,2023.53,2953.95,2800.99,3192.99,600.74,592.71,42.42,0000 0000 0000 0000 000000
2018-07-21 00:28:03,0.02,1.09,0.00,24.08,28.00,31.02,13.88,46.82,1013.49,2023.68,2953.99,2800.99,3192.99,600.53,592.61,42.47,0000 0000 0000 0000 000000
2018-07-21 00:33:04,-0.00,1.09,0.00,24.09,28.00,31.02,13.87,46.97,1013.45,2023.70,2953.99,2801.00,3193.00,599.99,592.19,42.52,0000 0000 0000 0000 000000
2018-07-21 00:38:05,0.01,1.09,0.00,24.08,27.99,31.00,13.81,46.49,1013.43,2023.80,2953.99,2801.01,3193.00,599.48,591.50,42.57,0000 0000 0000 0000 000000
2018-07-21 00:43:07,-0.01,1.09,0.00,24.08,27.97,30.99,13.78,47.01,1013.34,2023.69,2953.99,2801.01,3193.00,600.03,591.91,42.62,0000 0000 0000 0000 000000
2018-07-21 00:48:08,0.01,1.09,0.00,24.06,27.97,30.97,13.80,46.64,1013.26,2023.79,2953.99,2801.02,3193.00,598.99,590.90,42.67,0000 0000 0000 0000 000000
2018-07-21 00:53:09,0.01,1.09,0.00,24.04,27.96,30.97,13.76,46.42,1013.24,2023.89,2953.99,2801.05,3193.00,599.41,591.35,42.72,0000 0000 0000 0000 000000
2018-07-21 00:58:10,0.00,1.09,0.00,24.04,27.95,30.98,13.91,47.17,1013.21,2023.88,2953.99,2801.06,3193.01,600.43,592.29,42.77,0000 0000 0000 0000 000000
2018-07-21 01:03:11,0.00,1.09,0.00,24.05,27.95,30.97,13.85,47.32,1013.20,2023.87,2953.99,2801.05,3193.00,599.90,591.94,42.82,0000 0000 0000 0000 000000
2018-07-21 01:08:12,0.00,1.09,0.00,24.05,27.93,30.97,13.82,47.11,1013.20,2023.96,2953.99,2801.10,3193.02,599.82,591.67,42.87,0000 0000 0000 0000 000000
2018-07-21 01:13:14,0.00,1.09,0.00,24.07,27.92,30.93,13.87,47.22,1013.20,2023.96,2953.99,2801.14,3193.02,599.89,591.62,42.92,0000 0000 0000 0000 000000
2018-07-21 01:18:15,-0.01,1.09,0.00,24.08,27.92,30.92,13.81,47.03,1013.20,2023.99,2953.99,2801.26,3193.09,599.94,591.71,42.97,0000 0000 0000 0000 000000
2018-07-21 01:23:16,-0.01,1.09,0.00,24.10,27.92,30.90,13.93,47.37,1013.20,2023.99,2953.99,2801.54,3193.22,600.18,592.03,43.02,0000 0000 0000 0000 000000
2018-07-21 01:28:18,-0.00,1.09,0.00,24.12,27.92,30.88,13.89,47.28,1013.20,2023.99,2954.01,2801.66,3193.14,600.19,592.07,43.07,0000 0000 0000 0000 000000
2018-07-21 01:33:19,0.00,1.09,0.00,24.12,27.90,30.91,13.91,47.66,1013.20,2023.97,2954.05,2801.59,3193.03,600.21,592.02,43.13,0000 0000 0000 0000 000000
2018-07-21 01:38:20,0.01,1.09,0.00,24.13,27.90,30.91,13.82,47.67,1013.22,2023.97,2954.00,2801.24,3193.01,599.83,591.58,43.18,0000 0000 0000 0000 000000
2018-07-21 01:43:22,-0.00,1.09,0.00,24.14,27.90,30.88,13.78,47.41,1013.21,2023.95,2954.00,2801.14,3193.01,599.56,591.42,43.23,0000 0000 0000 0000 000000
2018-07-21 01:48:23,0.00,1.09,0.00,24.17,27.90,30.89,13.94,47.67,1013.20,2023.96,2954.00,2801.13,3193.01,600.77,592.41,43.28,0000 0000 0000 0000 000000
2018-07-21 01:53:24,-0.00,1.09,0.00,24.18,27.90,30.85,13.82,47.63,1013.20,2023.95,2954.00,2801.11,3193.01,599.86,591.61,43.33,0000 0000 0000 0000 000000
2018-07-21 01:58:25,0.00,1.09,0.00,24.22,27.90,30.84,13.85,47.83,1013.19,2023.98,2954.00,2801.37,3193.04,600.12,591.67,43.38,0000 0000 0000 0000 000000
2018-07-21 02:03:26,-0.01,1.09,0.00,24.24,27.90,30.77,13.86,47.77,1013.20,2023.99,2954.01,2801.61,3193.03,599.99,591.72,43.43,0000 0000 0000 0000 000000
2018-07-21 02:08:28,0.01,1.09,0.00,24.27,27.91,30.73,13.79,47.75,1013.20,2023.99,2953.99,2801.27,3193.02,599.68,591.16,43.48,0000 0000 0000 0000 000000
2018-07-21 02:13:29,0.00,1.09,0.00,24.22,27.92,30.65,13.84,47.73,1013.20,2023.98,2953.99,2801.11,3193.00,600.12,591.77,43.53,0000 0000 0000 0000 000000
2018-07-21 02:18:30,-0.00,1.09,0.00,24.32,27.92,30.53,13.74,47.80,1013.20,2023.95,2953.97,2801.01,3193.00,599.35,590.78,43.58,0000 0000 0000 0000 000000
2018-07-21 02:23:31,0.02,1.09,0.00,24.45,27.94,30.51,13.87,47.87,1013.20,2023.95,2953.88,2800.99,3192.70,600.07,591.21,43.63,0000 0000 0000 0000 000000
2018-07-21 02:28:32,0.02,1.10,0.00,24.50,27.95,30.53,13.75,47.77,1013.20,2023.88,2953.28,2800.80,3192.08,599.76,590.71,43.68,0000 0000 0000 0000 000000
2018-07-21 02:33:33,-0.01,1.10,0.00,24.55,27.97,30.58,13.83,47.67,1013.20,2023.67,2953.02,2800.10,3191.99,599.87,590.74,43.73,0000 0000 0000 0000 000000
2018-07-21 02:38:34,0.02,1.10,0.00,24.62,27.99,30.58,13.79,47.62,1013.20,2023.60,2952.98,2800.00,3191.97,599.97,590.91,43.78,0000 0000 0000 0000 000000
2018-07-21 02:43:35,0.02,1.10,0.00,24.67,28.01,30.61,13.75,47.74,1013.19,2023.41,2952.48,2799.52,3191.22,599.71,590.38,43.83,0000 0000 0000 0000 000000
2018-07-21 02:48:37,0.18,1.10,0.00,24.72,28.03,30.61,13.88,47.68,1013.20,2023.35,2950.76,2796.96,3188.25,600.24,590.87,43.88,0000 0000 0000 0000 000000
2018-07-21 02:53:38,0.06,1.11,0.00,24.76,28.06,30.65,13.80,47.52,1013.20,2023.38,2949.69,2795.35,3187.00,600.04,590.59,43.93,0000 0000 0000 0000 000000
2018-07-21 02:58:39,-0.02,1.11,0.00,24.77,28.08,30.69,13.80,47.57,1013.21,2023.12,2949.25,2795.01,3186.71,600.21,590.70,43.98,0000 0000 0000 0000 000000
2018-07-21 03:03:41,0.01,1.11,0.00,24.79,28.11,30.72,13.81,47.72,1013.21,2023.00,2949.00,2794.97,3186.04,599.98,590.45,44.03,0000 0000 0000 0000 000000
2018-07-21 03:08:42,0.01,1.11,0.00,24.78,28.13,30.75,13.79,47.77,1013.20,2023.00,2948.99,2794.51,3185.99,600.07,590.62,44.09,0000 0000 0000 0000 000000
2018-07-21 03:13:43,0.08,1.11,0.00,24.76,28.16,30.79,13.75,47.85,1013.20,2023.00,2948.23,2793.53,3185.03,599.93,590.35,44.14,0000 0000 0000 0000 000000
2018-07-21 03:18:44,0.07,1.12,0.00,24.75,28.18,30.81,13.71,47.96,1013.20,2023.00,2947.03,2792.02,3183.34,599.62,590.02,44.19,0000 0000 0000 0000 000000
2018-07-21 03:23:45,0.09,1.12,0.00,24.75,28.20,30.84,13.81,47.94,1013.40,2022.99,2946.06,2790.68,3181.90,599.95,590.62,44.24,0000 0000 0000 0000 000000
2018-07-21 03:28:47,0.08,1.13,0.00,24.75,28.22,30.88,13.86,47.80,1013.63,2022.94,2944.89,2788.95,3179.97,600.13,590.99,44.29,0000 0000 0000 0000 000000
2018-07-21 03:33:48,0.16,1.13,0.00,24.75,28.25,30.91,13.85,48.03,1013.62,2022.90,2943.53,2786.92,3177.96,599.81,590.60,44.34,0000 0000 0000 0000 000000
2018-07-21 03:38:49,0.14,1.14,0.00,24.75,28.26,30.93,13.85,47.77,1013.83,2022.96,2941.26,2784.13,3175.14,600.40,591.39,44.39,0000 0000 0000 0000 000000
2018-07-21 03:43:50,-0.01,1.14,0.00,24.75,28.27,30.97,13.80,47.59,1013.78,2022.88,2941.01,2783.99,3174.90,599.67,590.60,44.44,0000 0000 0000 0000 000000
2018-07-21 03:48:51,-0.02,1.14,0.00,24.75,28.30,30.98,13.76,47.58,1013.72,2022.53,2940.99,2783.88,3174.33,599.46,590.33,44.49,0000 0000 0000 0000 000000
2018-07-21 03:53:53,0.09,1.14,0.00,24.75,28.31,31.02,13.78,47.81,1013.87,2022.34,2940.28,2782.49,3173.39,599.62,590.58,44.54,0000 0000 0000 0000 000000
2018-07-21 03:58:54,0.05,1.15,0.00,24.75,28.32,31.02,13.78,47.63,1014.16,2022.40,2939.09,2781.04,3172.00,599.83,590.98,44.59,0000 0000 0000 0000 000000
2018-07-21 04:03:55,0.01,1.15,0.00,24.75,28.34,31.06,13.80,47.93,1014.17,2022.10,2939.00,2780.74,3171.39,599.60,590.73,44.64,0000 0000 0000 0000 000000
2018-07-21 04:08:57,0.04,1.15,0.00,24.74,28.35,31.11,13.75,47.38,1014.25,2022.09,2938.37,2780.04,3170.91,599.87,591.07,44.69,0000 0000 0000 0000 000000
2018-07-21 04:13:59,0.01,1.15,0.00,24.72,28.35,31.13,13.82,47.65,1014.57,2022.11,2938.00,2779.96,3170.37,600.10,591.45,44.74,0000 0000 0000 0000 000000
2018-07-21 04:19:00,0.05,1.15,0.00,24.70,28.36,31.21,13.92,47.83,1014.64,2022.07,2937.39,2779.13,3169.53,600.26,591.85,44.79,0000 0000 0000 0000 000000
2018-07-21 04:24:01,0.03,1.16,0.00,24.68,28.37,31.27,13.82,47.48,1014.66,2022.06,2937.06,2778.37,3169.03,599.67,591.23,44.84,0000 0000 0000 0000 000000
2018-07-21 04:29:02,0.03,1.16,0.00,24.66,28.37,31.31,13.80,47.26,1014.66,2022.27,2937.00,2778.14,3169.00,599.91,591.54,44.89,0000 0000 0000 0000 000000
2018-07-21 04:34:03,-0.00,1.16,0.00,24.65,28.37,31.37,13.82,47.24,1014.66,2022.38,2937.00,2778.09,3169.00,599.84,591.30,44.94,0000 0000 0000 0000 000000
2018-07-21 04:39:04,0.01,1.16,0.00,24.64,28.37,31.39,13.84,47.15,1014.68,2022.37,2936.88,2778.00,3168.99,599.98,591.67,44.99,0000 0000 0000 0000 000000
2018-07-21 04:44:05,0.01,1.16,0.00,24.63,28.37,31.33,13.79,47.33,1014.71,2022.23,2936.24,2777.89,3168.22,599.68,591.33,45.04,0000 0000 0000 0000 000000
2018-07-21 04:49:07,0.04,1.16,0.00,24.62,28.37,31.37,13.84,47.16,1014.71,2022.34,2936.02,2777.41,3168.01,599.58,591.25,45.09,0000 0000 0000 0000 000000
2018-07-21 04:54:08,-0.01,1.16,0.00,24.60,28.37,31.36,13.92,47.33,1014.70,2022.32,2935.99,2777.01,3167.95,600.51,592.30,45.14,0000 0000 0000 0000 000000
2018-07-21 04:59:10,0.12,1.16,0.00,24.58,28.37,31.38,13.83,47.47,1014.81,2022.41,2935.17,2775.82,3166.70,600.00,591.76,45.20,0000 0000 0000 0000 000000
2018-07-21 05:04:11,0.04,1.17,0.00,24.57,28.37,31.39,13.90,47.37,1014.99,2022.18,2934.02,2774.05,3164.95,600.27,592.23,45.25,0000 0000 0000 0000 000000
2018-07-21 05:09:12,0.01,1.17,0.00,24.57,28.37,31.38,13.86,47.19,1014.90,2022.28,2933.99,2774.00,3164.86,599.85,591.79,45.30,0000 0000 0000 0000 000000
2018-07-21 05:14:13,-0.00,1.17,0.00,24.55,28.36,31.39,13.91,47.33,1015.08,2022.18,2933.98,2774.00,3164.40,600.01,591.99,45.35,0000 0000 0000 0000 000000
2018-07-21 05:19:15,-0.01,1.17,0.00,24.52,28.35,31.36,13.88,47.33,1015.14,2022.07,2933.98,2774.00,3164.06,600.39,592.40,45.40,0000 0000 0000 0000 000000
2018-07-21 05:24:16,0.01,1.17,0.00,24.52,28.35,31.37,13.88,47.17,1015.10,2022.13,2933.94,2774.00,3164.02,600.31,592.34,45.45,0000 0000 0000 0000 000000
2018-07-21 05:29:17,0.01,1.17,0.00,24.51,28.35,31.37,13.90,47.23,1015.16,2022.26,2933.83,2774.00,3164.01,600.29,592.55,45.50,0000 0000 0000 0000 000000
2018-07-21 05:34:19,-0.00,1.17,0.00,24.51,28.35,31.36,13.94,47.40,1015.19,2022.13,2933.64,2773.97,3164.00,600.46,592.71,45.55,0000 0000 0000 0000 000000
2018-07-21 05:39:20,0.01,1.17,0.00,24.50,28.35,31.33,13.92,47.38,1015.24,2022.17,2933.59,2773.98,3164.00,600.44,592.71,45.60,0000 0000 0000 0000 000000
2018-07-21 05:44:21,-0.00,1.17,0.00,24.50,28.35,31.36,13.94,47.70,1015.41,2022.11,2933.60,2773.83,3163.99,600.32,592.70,45.65,0000 0000 0000 0000 000000
2018-07-21 05:49:22,0.01,1.17,0.00,24.50,28.35,31.37,13.89,47.50,1015.63,2022.07,2933.25,2773.43,3163.95,600.17,592.66,45.70,0000 0000 0000 0000 000000
2018-07-21 05:54:23,0.01,1.17,0.00,24.50,28.35,31.34,13.84,47.37,1015.64,2022.11,2933.12,2773.37,3163.92,600.38,592.88,45.75,0000 0000 0000 0000 000000
2018-07-21 05:59:25,0.01,1.17,0.00,24.50,28.34,31.35,13.87,47.37,1015.65,2022.13,2933.05,2773.27,3163.89,600.26,592.77,45.80,0000 0000 0000 0000 000000
2018-07-21 06:04:26,-0.00,1.17,0.00,24.48,28.33,31.33,13.79,47.49,1015.64,2022.06,2933.06,2773.13,3163.63,599.67,592.20,45.85,0000 0000 0000 0000 000000
2018-07-21 06:09:27,0.01,1.17,0.00,24.47,28.33,31.33,13.90,47.10,1015.75,2022.05,2933.02,2773.10,3163.31,600.33,592.84,45.90,0000 0000 0000 0000 000000
2018-07-21 06:14:28,0.00,1.17,0.00,24.49,28.32,31.35,13.89,47.27,1015.74,2022.05,2933.01,2773.08,3163.12,599.84,592.35,45.95,0000 0000 0000 0000 000000
2018-07-21 06:19:30,-0.01,1.17,0.00,24.50,28.32,31.35,13.92,47.51,1015.68,2022.03,2933.08,2773.28,3163.21,599.83,592.23,46.00,0000 0000 0000 0000 000000
2018-07-21 06:24:31,0.00,1.17,0.00,24.48,28.32,31.34,13.91,47.43,1015.97,2022.01,2933.04,2773.20,3163.11,600.12,592.89,46.05,0000 0000 0000 0000 000000
2018-07-21 06:29:32,0.00,1.17,0.00,24.47,28.32,31.32,13.89,47.25,1016.12,2022.03,2933.03,2773.19,3163.10,599.89,592.61,46.10,0000 0000 0000 0000 000000
2018-07-21 06:34:34,0.00,1.17,0.00,24.48,28.32,31.32,13.90,47.17,1016.13,2022.05,2933.00,2773.11,3163.05,599.91,592.70,46.16,0000 0000 0000 0000 000000
2018-07-21 06:39:35,0.00,1.17,0.00,24.47,28.31,31.31,13.88,47.14,1016.13,2022.07,2932.99,2773.05,3163.04,600.38,593.18,46.21,0000 0000 0000 0000 000000
2018-07-21 06:44:36,-0.00,1.17,0.00,24.50,28.30,31.29,13.86,47.43,1016.10,2022.09,2932.99,2773.14,3163.03,599.84,592.64,46.26,0000 0000 0000 0000 000000
2018-07-21 06:49:38,-0.01,1.17,0.00,24.50,28.30,31.29,13.91,47.11,1016.13,2022.05,2932.99,2773.19,3163.02,600.31,592.98,46.31,0000 0000 0000 0000 000000
2018-07-21 06:54:39,0.01,1.17,0.00,24.50,28.30,31.28,13.93,47.23,1016.13,2022.10,2932.99,2773.09,3163.01,600.04,592.78,46.36,0000 0000 0000 0000 000000
2018-07-21 06:59:40,0.02,1.17,0.00,24.50,28.30,31.29,13.79,47.11,1016.14,2022.30,2932.98,2773.07,3163.01,600.05,592.84,46.41,0000 0000 0000 0000 000000
2018-07-21 07:04:42,-0.02,1.17,0.00,24.50,28.30,31.28,13.85,47.25,1016.19,2022.22,2932.98,2773.07,3163.00,600.19,592.92,46.46,0000 0000 0000 0000 000000
2018-07-21 07:09:43,0.02,1.17,0.00,24.50,28.30,31.28,13.96,47.32,1016.30,2022.18,2932.91,2773.05,3163.00,600.46,593.25,46.51,0000 0000 0000 0000 000000
2018-07-21 07:14:45,-0.01,1.17,0.00,24.50,28.30,31.27,13.87,47.20,1016.36,2022.23,2932.67,2773.01,3162.99,599.91,592.83,46.56,0000 0000 0000 0000 000000
2018-07-21 07:19:46,0.05,1.17,0.00,24.51,28.29,31.26,13.82,46.94,1016.61,2022.24,2932.38,2773.00,3162.98,599.59,592.60,46.61,0000 0000 0000 0000 000000
2018-07-21 07:24:47,-0.02,1.18,0.00,24.51,28.28,31.26,13.94,47.18,1016.62,2022.29,2932.12,2773.00,3162.89,600.13,593.13,46.66,0000 0000 0000 0000 000000
2018-07-21 07:29:48,0.01,1.18,0.00,24.51,28.27,31.26,13.87,47.17,1016.62,2022.21,2932.01,2772.99,3162.22,600.19,593.17,46.71,0000 0000 0000 0000 000000
2018-07-21 07:34:50,-0.01,1.18,0.00,24.53,28.27,31.24,13.90,47.00,1016.63,2022.08,2932.00,2772.98,3162.01,600.21,593.26,46.76,0000 0000 0000 0000 000000
2018-07-21 07:39:51,0.00,1.18,0.00,24.55,28.27,31.23,13.88,47.18,1016.65,2022.10,2932.00,2772.98,3162.01,600.03,593.00,46.81,0000 0000 0000 0000 000000
2018-07-21 07:44:52,-0.00,1.18,0.00,24.56,28.27,31.23,13.87,47.17,1016.73,2022.09,2931.99,2772.96,3162.01,600.02,592.95,46.86,0000 0000 0000 0000 000000
2018-07-21 07:49:53,0.03,1.18,0.00,24.57,28.27,31.21,13.88,47.30,1016.82,2022.07,2931.53,2772.21,3161.95,600.00,593.08,46.91,0000 0000 0000 0000 000000
2018-07-21 07:54:54,0.01,1.18,0.00,24.57,28.27,31.20,13.88,47.13,1017.10,2022.06,2931.21,2772.05,3161.92,600.22,593.38,46.96,0000 0000 0000 0000 000000
2018-07-21 07:59:56,0.01,1.18,0.00,24.58,28.27,31.20,13.84,47.06,1017.10,2022.10,2931.07,2772.03,3161.81,599.69,592.89,47.01,0000 0000 0000 0000 000000
2018-07-21 08:04:57,0.01,1.18,0.00,24.60,28.27,31.20,13.90,47.17,1017.10,2022.07,2931.00,2772.00,3161.15,599.55,592.74,47.06,0000 0000 0000 0000 000000
2018-07-21 08:09:58,0.01,1.18,0.00,24.60,28.28,31.21,13.83,46.98,1017.11,2022.11,2930.99,2772.00,3161.01,599.97,593.16,47.11,0000 0000 0000 0000 000000
2018-07-21 08:15:00,-0.00,1.18,0.00,24.61,28.29,31.14,13.81,47.05,1017.11,2022.13,2930.88,2771.97,3160.99,599.87,592.83,47.16,0000 0000 0000 0000 000000
2018-07-21 08:20:01,-0.00,1.18,0.00,24.63,28.30,31.17,13.89,47.16,1017.12,2022.06,2930.67,2771.96,3160.96,599.91,593.01,47.21,0000 0000 0000 0000 000000
2018-07-21 08:25:02,0.02,1.18,0.00,24.65,28.30,31.14,13.87,47.22,1017.20,2022.05,2930.10,2771.64,3160.65,600.07,593.22,47.27,0000 0000 0000 0000 000000
2018-07-21 08:30:04,0.01,1.18,0.00,24.66,28.30,31.15,13.86,47.06,1017.49,2022.02,2930.02,2771.17,3160.11,599.98,593.16,47.32,0000 0000 0000 0000 000000
2018-07-21 08:35:05,0.00,1.18,0.00,24.67,28.30,31.16,13.90,47.03,1017.58,2022.03,2930.01,2771.10,3160.03,599.98,593.23,47.37,0000 0000 0000 0000 000000
2018-07-21 08:40:06,0.00,1.18,0.00,24.70,28.30,31.14,13.92,47.36,1017.48,2022.03,2930.00,2771.02,3160.01,600.16,593.37,47.42,0000 0000 0000 0000 000000
2018-07-21 08:45:08,-0.00,1.18,0.00,24.71,28.32,31.10,13.94,47.11,1017.59,2022.04,2929.93,2771.00,3160.00,600.36,593.58,47.47,0000 0000 0000 0000 000000
2018-07-21 08:50:09,-0.00,1.18,0.00,24.72,28.32,31.08,13.86,47.02,1017.60,2022.02,2929.94,2771.00,3159.98,599.70,592.98,47.52,0000 0000 0000 0000 000000
2018-07-21 08:55:10,0.00,1.18,0.00,24.74,28.32,31.11,13.89,47.23,1017.61,2022.02,2929.90,2771.00,3159.98,600.21,593.33,47.57,0000 0000 0000 0000 000000
2018-07-21 09:00:12,-0.00,1.18,0.00,24.76,28.32,31.13,13.82,47.17,1017.61,2022.01,2929.90,2771.00,3159.98,599.90,592.89,47.62,0000 0000 0000 0000 000000
2018-07-21 09:05:13,0.01,1.18,0.00,24.76,28.34,31.06,13.85,47.02,1017.64,2022.01,2929.64,2770.99,3159.94,600.02,593.13,47.67,0000 0000 0000 0000 000000
2018-07-21 09:10:14,-0.00,1.18,0.00,24.79,28.35,30.99,13.86,47.01,1017.62,2022.00,2929.79,2770.99,3159.94,600.19,593.27,47.72,0000 0000 0000 0000 000000
2018-07-21 09:15:16,0.01,1.18,0.00,24.81,28.35,30.95,13.89,46.98,1017.67,2022.00,2929.51,2770.98,3159.74,600.00,593.02,47.77,0000 0000 0000 0000 000000
2018-07-21 09:20:17,0.00,1.18,0.00,24.83,28.37,30.96,13.89,46.90,1017.71,2022.00,2929.34,2770.98,3159.37,599.90,592.91,47.82,0000 0000 0000 0000 000000
2018-07-21 09:25:18,-0.00,1.18,0.00,24.86,28.37,30.95,13.87,46.83,1017.88,2022.00,2929.32,2770.98,3159.24,600.26,593.36,47.87,0000 0000 0000 0000 000000
2018-07-21 09:30:19,0.01,1.18,0.00,24.88,28.39,30.95,13.83,46.91,1017.89,2022.00,2929.15,2770.98,3159.10,600.02,592.91,47.92,0000 0000 0000 0000 000000
2018-07-21 09:35:20,0.01,1.18,0.00,24.91,28.40,30.96,13.87,46.93,1018.03,2022.00,2929.02,2770.80,3159.02,599.90,592.97,47.97,0000 0000 0000 0000 000000
2018-07-21 09:40:21,0.02,1.18,0.00,24.92,28.41,30.97,13.90,46.87,1018.08,2022.00,2929.00,2770.29,3159.00,600.16,593.21,48.02,0000 0000 0000 0000 000000
2018-07-21 09:45:22,0.00,1.19,0.00,24.94,28.42,30.98,13.73,46.88,1018.09,2022.00,2929.00,2770.08,3158.99,599.67,592.73,48.07,0000 0000 0000 0000 000000
2018-07-21 09:50:23,0.00,1.19,0.00,24.96,28.45,30.99,13.84,46.68,1018.23,2021.99,2929.00,2770.04,3158.98,599.90,592.87,48.12,0000 0000 0000 0000 000000
2018-07-21 09:55:25,0.00,1.19,0.00,24.99,28.46,31.00,13.79,46.67,1018.53,2021.96,2928.98,2770.00,3158.90,599.77,592.92,48.17,0000 0000 0000 0000 000000
2018-07-21 10:00:26,0.01,1.19,0.00,25.02,28.47,31.04,13.90,46.73,1018.55,2021.93,2928.76,2770.00,3158.49,599.74,592.87,48.23,0000 0000 0000 0000 000000
2018-07-21 10:05:27,-0.01,1.19,0.00,25.02,28.49,31.06,13.87,46.71,1018.57,2021.89,2928.74,2770.00,3158.18,600.23,593.20,48.28,0000 0000 0000 0000 000000
2018-07-21 10:10:29,-0.00,1.19,0.00,25.02,28.50,31.09,13.89,46.73,1018.57,2021.75,2928.34,2769.98,3158.08,600.02,593.20,48.33,0000 0000 0000 0000 000000
2018-07-21 10:15:30,-0.04,1.18,0.00,25.01,28.52,31.13,13.88,46.88,1018.57,2021.18,2928.05,2769.94,3158.00,600.28,593.37,48.38,0000 0000 0000 0000 000000
2018-07-21 10:20:31,-0.00,1.18,0.00,24.98,28.53,31.17,13.84,46.84,1018.57,2021.04,2928.01,2769.90,3157.99,599.74,593.03,48.43,0000 0000 0000 0000 000000
2018-07-21 10:25:32,-0.00,1.18,0.00,24.96,28.55,31.21,13.83,46.65,1018.60,2021.03,2928.00,2769.73,3157.99,599.80,593.07,48.48,0000 0000 0000 0000 000000
2018-07-21 10:30:34,0.01,1.18,0.00,24.94,28.55,31.26,13.92,46.80,1018.79,2021.01,2927.99,2769.31,3157.94,600.29,593.77,48.53,0000 0000 0000 0000 000000
2018-07-21 10:35:35,0.01,1.18,0.00,24.93,28.57,31.32,13.95,46.69,1018.76,2021.00,2927.98,2769.06,3157.81,600.22,593.64,48.58,0000 0000 0000 0000 000000
2018-07-21 10:40:36,0.01,1.18,0.00,24.91,28.57,31.44,13.89,46.90,1018.84,2021.00,2927.92,2769.02,3157.32,599.80,593.38,48.63,0000 0000 0000 0000 000000
2018-07-21 10:45:37,0.00,1.18,0.00,24.88,28.57,31.45,13.93,46.69,1019.00,2021.00,2927.78,2769.00,3157.08,600.66,594.23,48.68,0000 0000 0000 0000 000000
2018-07-21 10:50:39,0.00,1.18,0.00,24.87,28.57,31.53,13.87,46.59,1018.84,2021.00,2927.73,2769.00,3157.05,600.00,593.58,48.73,0000 0000 0000 0000 000000
2018-07-21 10:55:40,0.01,1.19,0.00,24.87,28.58,31.57,13.80,46.48,1018.73,2021.00,2927.29,2769.00,3157.03,599.50,593.07,48.78,0000 0000 0000 0000 000000
2018-07-21 11:00:41,-0.00,1.19,0.00,24.84,28.59,31.60,13.87,46.52,1018.66,2021.00,2927.24,2769.00,3157.04,600.06,593.61,48.83,0000 0000 0000 0000 000000
2018-07-21 11:05:42,0.00,1.19,0.00,24.82,28.58,31.60,13.83,46.56,1018.75,2021.00,2927.08,2769.00,3157.00,599.43,593.00,48.88,0000 0000 0000 0000 000000
2018-07-21 11:10:43,0.00,1.19,0.00,24.82,28.58,31.59,13.93,46.55,1018.94,2021.00,2927.04,2769.00,3157.00,600.16,593.80,48.93,0000 0000 0000 0000 000000
2018-07-21 11:15:44,0.00,1.19,0.00,24.81,28.57,31.61,13.92,46.83,1019.00,2021.00,2927.03,2769.00,3157.01,600.46,594.11,48.98,0000 0000 0000 0000 000000
2018-07-21 11:20:46,0.00,1.19,0.00,24.79,28.57,31.58,13.94,46.75,1019.00,2021.00,2927.05,2769.00,3157.01,600.31,594.12,49.03,0000 0000 0000 0000 000000
2018-07-21 11:25:47,0.00,1.19,0.00,24.78,28.57,31.58,13.90,46.78,1018.85,2021.00,2927.12,2769.00,3157.01,599.77,593.50,49.08,0000 0000 0000 0000 000000
2018-07-21 11:30:48,0.00,1.19,0.00,24.77,28.57,31.56,13.89,46.70,1018.92,2021.00,2927.09,2769.00,3157.02,599.96,593.84,49.13,0000 0000 0000 0000 000000
2018-07-21 11:35:49,0.00,1.19,0.00,24.75,28.57,31.57,13.89,46.56,1018.62,2021.00,2927.02,2769.00,3157.02,599.72,593.55,49.18,0000 0000 0000 0000 000000
2018-07-21 11:40:50,0.00,1.19,0.00,24.74,28.57,31.57,13.92,46.61,1018.57,2021.01,2927.02,2769.00,3157.01,599.69,593.47,49.23,0000 0000 0000 0000 000000
2018-07-21 11:45:51,0.00,1.19,0.00,24.74,28.56,31.56,13.84,46.65,1018.57,2021.00,2927.00,2769.00,3157.00,600.15,594.00,49.28,0000 0000 0000 0000 000000
2018-07-21 11:50:53,0.00,1.19,0.00,24.74,28.55,31.55,13.90,46.68,1018.57,2021.00,2927.00,2769.00,3157.00,599.96,593.61,49.34,0000 0000 0000 0000 000000
2018-07-21 11:55:54,0.00,1.19,0.00,24.74,28.55,31.55,13.86,46.55,1018.66,2021.02,2927.01,2769.00,3157.02,600.14,593.88,49.39,0000 0000 0000 0000 000000
2018-07-21 12:00:56,0.00,1.19,0.00,24.73,28.55,31.53,13.94,46.69,1018.91,2021.03,2927.00,2769.00,3157.01,600.18,594.05,49.44,0000 0000 0000 0000 000000
2018-07-21 12:05:57,-0.00,1.19,0.00,24.72,28.54,31.54,13.89,46.63,1018.89,2021.02,2927.00,2769.00,3157.00,599.86,593.90,49.49,0000 0000 0000 0000 000000
2018-07-21 12:10:58,-0.00,1.19,0.00,24.71,28.52,31.54,13.88,46.57,1018.76,2021.02,2927.00,2769.00,3157.01,600.01,593.71,49.54,0000 0000 0000 0000 000000
2018-07-21 12:16:00,0.01,1.19,0.00,24.70,28.52,31.53,13.88,46.81,1018.61,2021.06,2927.00,2769.00,3157.01,599.70,593.42,49.59,0000 0000 0000 0000 000000
2018-07-21 12:21:01,0.01,1.19,0.00,24.68,28.52,31.54,13.87,46.51,1018.59,2021.20,2927.00,2769.00,3157.03,599.76,593.63,49.64,0000 0000 0000 0000 000000
2018-07-21 12:26:02,0.00,1.19,0.00,24.67,28.51,31.54,13.86,46.59,1018.59,2021.29,2927.00,2769.01,3157.03,599.91,593.89,49.69,0000 0000 0000 0000 000000
2018-07-21 12:31:04,0.01,1.19,0.00,24.65,28.50,31.52,13.91,46.58,1018.61,2021.44,2927.00,2769.02,3157.05,600.23,594.19,49.74,0000 0000 0000 0000 000000
2018-07-21 12:36:05,0.01,1.19,0.00,24.63,28.50,31.51,13.87,46.46,1018.76,2021.49,2927.00,2769.02,3157.09,599.68,593.77,49.79,0000 0000 0000 0000 000000
2018-07-21 12:41:06,0.02,1.19,0.00,24.62,28.48,31.49,13.87,46.42,1018.86,2021.65,2927.00,2769.03,3157.09,600.18,594.29,49.84,0000 0000 0000 0000 000000
2018-07-21 12:46:08,0.01,1.19,0.00,24.60,28.47,31.51,14.00,46.38,1018.80,2021.81,2927.00,2769.07,3157.13,600.41,594.71,49.89,0000 0000 0000 0000 000000
2018-07-21 12:51:09,-0.00,1.19,0.00,24.59,28.46,31.49,13.92,46.42,1018.63,2021.94,2927.00,2769.17,3157.48,600.01,594.07,49.94,0000 0000 0000 0000 000000
2018-07-21 12:56:10,0.00,1.19,0.00,24.57,28.45,31.50,13.90,46.50,1018.64,2021.95,2927.00,2769.10,3157.24,600.20,594.30,49.99,0000 0000 0000 0000 000000